Time,TemperatureF,DewpointF,PressureIn,WindDirection,WindDirectionDegrees,WindSpeedMPH,WindSpeedGustMPH,Humidity,HourlyPrecipIn,Conditions,Clouds,dailyrainin,SoftwareType,DateUTC
2013-07-30 00:00:00,76.7,73.2,30.13,ESE,117,0.0,4.0,89,-0.22,,,0.00,Weather View 32 v70,2013-07-30 04:00:00,
2013-07-30 00:01:00,76.7,73.2,30.13,ESE,117,0.0,4.0,89,-0.22,,,0.00,Weather View 32 v70,2013-07-30 04:01:00,
2013-07-30 00:02:00,76.7,73.2,30.13,ESE,117,0.0,4.0,89,-0.22,,,0.00,Weather View 32 v70,2013-07-30 04:02:00,
2013-07-30 00:17:00,76.6,73.1,30.13,ESE,117,0.0,4.0,89,-0.22,,,0.00,Weather View 32 v70,2013-07-30 04:17:00,
2013-07-30 00:22:00,76.5,73.3,30.13,ESE,117,0.0,4.0,90,-0.22,,,0.00,Weather View 32 v70,2013-07-30 04:22:00,
2013-07-30 00:27:00,76.4,72.9,30.13,ESE,117,0.0,4.0,89,-0.22,,,0.00,Weather View 32 v70,2013-07-30 04:27:00,
2013-07-30 00:32:00,76.4,73.2,30.13,ESE,117,0.0,2.0,90,-0.22,,,0.00,Weather View 32 v70,2013-07-30 04:32:00,
2013-07-30 00:37:00,76.4,73.2,30.13,ESE,117,0.0,2.0,90,-0.22,,,0.00,Weather View 32 v70,2013-07-30 04:37:00,
2013-07-30 00:43:00,76.3,73.1,30.13,ESE,117,0.0,2.0,90,-0.22,,,0.00,Weather View 32 v70,2013-07-30 04:43:00,
2013-07-30 00:48:00,76.3,73.1,30.13,ESE,117,0.0,1.0,90,-0.22,,,0.00,Weather View 32 v70,2013-07-30 04:48:00,
2013-07-30 00:53:00,76.3,73.5,30.13,ESE,117,0.0,0.0,91,-0.22,,,0.00,Weather View 32 v70,2013-07-30 04:53:00,
2013-07-30 00:58:00,76.3,73.5,30.13,ESE,117,0.0,0.0,91,0.00,,,0.00,Weather View 32 v70,2013-07-30 04:58:00,
2013-07-30 01:00:00,76.3,73.5,30.13,ESE,117,0.0,0.0,91,0.00,,,0.00,Weather View 32 v70,2013-07-30 05:00:00,
2013-07-30 01:03:00,76.3,73.5,30.13,ESE,117,0.0,0.0,91,0.00,,,0.00,Weather View 32 v70,2013-07-30 05:03:00,
2013-07-30 01:18:00,76.1,73.3,30.13,ESE,117,0.0,0.0,91,0.00,,,0.00,Weather View 32 v70,2013-07-30 05:18:00,
2013-07-30 01:23:00,76.0,73.2,30.12,ESE,117,0.0,0.0,91,0.00,,,0.00,Weather View 32 v70,2013-07-30 05:23:00,
2013-07-30 01:28:00,75.8,73.0,30.12,ESE,117,0.0,0.0,91,0.00,,,0.00,Weather View 32 v70,2013-07-30 05:28:00,
2013-07-30 01:33:00,75.8,73.0,30.12,ESE,117,0.0,0.0,91,0.00,,,0.00,Weather View 32 v70,2013-07-30 05:33:00,
2013-07-30 01:38:00,75.8,73.0,30.12,ESE,117,0.0,0.0,91,0.00,,,0.00,Weather View 32 v70,2013-07-30 05:38:00,
2013-07-30 01:43:00,75.8,73.0,30.12,ESE,117,0.0,0.0,91,0.00,,,0.00,Weather View 32 v70,2013-07-30 05:43:00,
2013-07-30 01:48:00,75.7,72.9,30.12,ESE,117,0.0,0.0,91,0.00,,,0.00,Weather View 32 v70,2013-07-30 05:48:00,
2013-07-30 01:53:00,75.7,72.9,30.12,ESE,117,0.0,0.0,91,0.00,,,0.00,Weather View 32 v70,2013-07-30 05:53:00,
2013-07-30 01:58:00,75.8,73.0,30.12,ESE,117,0.0,0.0,91,0.00,,,0.00,Weather View 32 v70,2013-07-30 05:58:00,
2013-07-30 02:00:00,75.8,73.0,30.12,ESE,117,0.0,0.0,91,0.00,,,0.00,Weather View 32 v70,2013-07-30 06:00:00,
2013-07-30 02:03:00,75.8,73.0,30.11,ESE,117,0.0,0.0,91,0.00,,,0.00,Weather View 32 v70,2013-07-30 06:03:00,
2013-07-30 02:08:00,75.8,73.0,30.12,ESE,117,0.0,0.0,91,0.00,,,0.00,Weather View 32 v70,2013-07-30 06:08:00,
2013-07-30 02:13:00,75.7,72.9,30.11,ESE,117,0.0,0.0,91,0.00,,,0.00,Weather View 32 v70,2013-07-30 06:13:00,
2013-07-30 02:18:00,75.7,72.9,30.11,ESE,117,0.0,0.0,91,0.00,,,0.00,Weather View 32 v70,2013-07-30 06:18:00,
2013-07-30 02:23:00,75.7,72.9,30.11,ESE,117,0.0,0.0,91,0.00,,,0.00,Weather View 32 v70,2013-07-30 06:23:00,
2013-07-30 02:28:00,75.6,72.8,30.12,ESE,117,0.0,0.0,91,0.00,,,0.00,Weather View 32 v70,2013-07-30 06:28:00,
2013-07-30 02:33:00,75.6,72.8,30.12,ESE,117,0.0,0.0,91,0.00,,,0.00,Weather View 32 v70,2013-07-30 06:33:00,
2013-07-30 02:38:00,75.5,72.7,30.11,ESE,117,0.0,0.0,91,0.00,,,0.00,Weather View 32 v70,2013-07-30 06:38:00,
2013-07-30 02:43:00,75.5,72.7,30.11,ESE,117,0.0,0.0,91,0.00,,,0.00,Weather View 32 v70,2013-07-30 06:43:00,
2013-07-30 02:48:00,75.5,72.7,30.11,ESE,117,0.0,0.0,91,0.00,,,0.00,Weather View 32 v70,2013-07-30 06:48:00,
2013-07-30 02:53:00,75.4,72.6,30.10,ESE,117,0.0,0.0,91,0.00,,,0.00,Weather View 32 v70,2013-07-30 06:53:00,
2013-07-30 02:58:00,75.4,72.9,30.10,ESE,117,0.0,0.0,92,0.00,,,0.00,Weather View 32 v70,2013-07-30 06:58:00,
2013-07-30 03:00:00,75.4,72.9,30.10,ESE,117,0.0,0.0,92,0.00,,,0.00,Weather View 32 v70,2013-07-30 07:00:00,
2013-07-30 03:03:00,75.3,72.8,30.10,ESE,117,0.0,0.0,92,0.00,,,0.00,Weather View 32 v70,2013-07-30 07:03:00,
2013-07-30 03:08:00,75.3,72.8,30.10,ESE,117,0.0,0.0,92,0.00,,,0.00,Weather View 32 v70,2013-07-30 07:08:00,
2013-07-30 03:13:00,75.3,72.8,30.10,ESE,117,0.0,0.0,92,0.00,,,0.00,Weather View 32 v70,2013-07-30 07:13:00,
2013-07-30 03:19:00,75.4,72.9,30.10,ESE,117,0.0,0.0,92,0.00,,,0.00,Weather View 32 v70,2013-07-30 07:19:00,
2013-07-30 03:24:00,75.5,73.0,30.10,ESE,117,0.0,0.0,92,0.00,,,0.00,Weather View 32 v70,2013-07-30 07:24:00,
2013-07-30 03:29:00,75.6,73.1,30.09,ESE,117,0.0,0.0,92,0.00,,,0.00,Weather View 32 v70,2013-07-30 07:29:00,
2013-07-30 03:34:00,75.6,73.1,30.10,ESE,117,0.0,0.0,92,0.00,,,0.00,Weather View 32 v70,2013-07-30 07:34:00,
2013-07-30 03:39:00,75.6,73.1,30.10,ESE,117,0.0,2.0,92,0.00,,,0.00,Weather View 32 v70,2013-07-30 07:39:00,
2013-07-30 03:44:00,75.7,73.2,30.10,ESE,117,0.0,2.0,92,0.00,,,0.00,Weather View 32 v70,2013-07-30 07:44:00,
2013-07-30 03:49:00,75.7,73.2,30.10,ESE,117,0.0,2.0,92,0.00,,,0.00,Weather View 32 v70,2013-07-30 07:49:00,
2013-07-30 03:54:00,75.7,73.2,30.09,ESE,117,0.0,2.0,92,0.00,,,0.00,Weather View 32 v70,2013-07-30 07:54:00,
2013-07-30 03:59:00,75.7,73.2,30.09,ESE,117,0.0,2.0,92,0.00,,,0.00,Weather View 32 v70,2013-07-30 07:59:00,
2013-07-30 04:00:00,75.7,73.2,30.09,ESE,117,0.0,2.0,92,0.00,,,0.00,Weather View 32 v70,2013-07-30 08:00:00,
2013-07-30 04:04:00,75.6,73.1,30.09,ESE,117,0.0,2.0,92,0.00,,,0.00,Weather View 32 v70,2013-07-30 08:04:00,
2013-07-30 04:09:00,75.6,73.1,30.10,ESE,117,2.0,2.0,92,0.00,,,0.00,Weather View 32 v70,2013-07-30 08:09:00,
2013-07-30 04:14:00,75.6,73.1,30.10,ESE,117,0.0,2.0,92,0.00,,,0.00,Weather View 32 v70,2013-07-30 08:14:00,
2013-07-30 04:19:00,75.5,73.0,30.09,ESE,117,0.0,4.0,92,0.00,,,0.00,Weather View 32 v70,2013-07-30 08:19:00,
2013-07-30 04:24:00,75.5,73.0,30.09,ESE,117,0.0,4.0,92,0.00,,,0.00,Weather View 32 v70,2013-07-30 08:24:00,
2013-07-30 04:29:00,75.6,73.1,30.09,ESE,117,0.0,4.0,92,0.00,,,0.00,Weather View 32 v70,2013-07-30 08:29:00,
2013-07-30 04:34:00,75.6,73.1,30.09,ESE,118,2.0,4.0,92,0.00,,,0.00,Weather View 32 v70,2013-07-30 08:34:00,
2013-07-30 04:39:00,75.6,73.1,30.09,ESE,116,0.0,5.0,92,0.00,,,0.00,Weather View 32 v70,2013-07-30 08:39:00,
2013-07-30 04:44:00,75.7,73.2,30.09,ESE,115,0.0,5.0,92,0.00,,,0.00,Weather View 32 v70,2013-07-30 08:44:00,
2013-07-30 04:49:00,75.7,73.2,30.09,ESE,115,0.0,5.0,92,0.00,,,0.00,Weather View 32 v70,2013-07-30 08:49:00,
2013-07-30 04:54:00,75.7,73.2,30.10,ESE,116,0.0,5.0,92,0.00,,,0.00,Weather View 32 v70,2013-07-30 08:54:00,
2013-07-30 04:59:00,75.7,73.2,30.09,ESE,116,1.0,5.0,92,0.00,,,0.00,Weather View 32 v70,2013-07-30 08:59:00,
2013-07-30 05:00:00,75.7,73.2,30.09,ESE,115,0.0,5.0,92,0.00,,,0.00,Weather View 32 v70,2013-07-30 09:00:00,
2013-07-30 05:04:00,75.6,73.1,30.09,ESE,116,0.0,5.0,92,0.00,,,0.00,Weather View 32 v70,2013-07-30 09:04:00,
2013-07-30 05:09:00,75.6,73.1,30.10,ESE,115,0.0,5.0,92,0.00,,,0.00,Weather View 32 v70,2013-07-30 09:09:00,
2013-07-30 05:14:00,75.5,73.0,30.10,ESE,116,0.0,5.0,92,0.00,,,0.00,Weather View 32 v70,2013-07-30 09:14:00,
2013-07-30 05:19:00,75.4,72.9,30.10,ESE,115,0.0,5.0,92,0.00,,,0.00,Weather View 32 v70,2013-07-30 09:19:00,
2013-07-30 05:24:00,75.4,72.9,30.10,ESE,116,0.0,5.0,92,0.00,,,0.00,Weather View 32 v70,2013-07-30 09:24:00,
2013-07-30 05:29:00,75.4,72.9,30.09,ESE,116,0.0,5.0,92,0.00,,,0.00,Weather View 32 v70,2013-07-30 09:29:00,
2013-07-30 05:34:00,75.3,72.8,30.10,ESE,115,0.0,5.0,92,0.00,,,0.00,Weather View 32 v70,2013-07-30 09:34:00,
2013-07-30 05:39:00,75.3,72.8,30.10,ESE,116,0.0,4.0,92,0.00,,,0.00,Weather View 32 v70,2013-07-30 09:39:00,
2013-07-30 05:44:00,75.3,72.8,30.10,ESE,116,0.0,4.0,92,0.00,,,0.00,Weather View 32 v70,2013-07-30 09:44:00,
2013-07-30 05:49:00,75.2,72.7,30.10,ESE,116,0.0,2.0,92,0.00,,,0.00,Weather View 32 v70,2013-07-30 09:49:00,
2013-07-30 05:54:00,75.2,73.0,30.10,ESE,116,0.0,2.0,93,0.00,,,0.00,Weather View 32 v70,2013-07-30 09:54:00,
2013-07-30 05:59:00,75.3,73.1,30.10,ESE,115,0.0,2.0,93,0.00,,,0.00,Weather View 32 v70,2013-07-30 09:59:00,
2013-07-30 06:00:00,75.3,73.1,30.10,ESE,116,0.0,2.0,93,0.00,,,0.00,Weather View 32 v70,2013-07-30 10:00:00,
2013-07-30 06:04:00,75.2,73.0,30.10,ESE,116,0.0,2.0,93,0.00,,,0.00,Weather View 32 v70,2013-07-30 10:04:00,
2013-07-30 06:09:00,75.2,73.0,30.10,ESE,115,0.0,1.0,93,0.00,,,0.00,Weather View 32 v70,2013-07-30 10:09:00,
2013-07-30 06:14:00,75.1,72.9,30.10,ESE,115,0.0,1.0,93,0.00,,,0.00,Weather View 32 v70,2013-07-30 10:14:00,
2013-07-30 06:20:00,75.1,72.9,30.11,ESE,115,0.0,1.0,93,0.00,,,0.00,Weather View 32 v70,2013-07-30 10:20:00,
2013-07-30 06:25:00,75.1,72.9,30.10,ESE,116,1.0,1.0,93,0.00,,,0.00,Weather View 32 v70,2013-07-30 10:25:00,
2013-07-30 06:30:00,75.1,72.9,30.11,ESE,115,0.0,1.0,93,0.00,,,0.00,Weather View 32 v70,2013-07-30 10:30:00,
2013-07-30 06:35:00,75.1,72.9,30.11,ESE,116,0.0,1.0,93,0.00,,,0.00,Weather View 32 v70,2013-07-30 10:35:00,
2013-07-30 06:40:00,75.2,73.0,30.11,ESE,116,0.0,1.0,93,0.00,,,0.00,Weather View 32 v70,2013-07-30 10:40:00,
2013-07-30 06:45:00,75.2,73.0,30.11,ESE,115,0.0,1.0,93,0.00,,,0.00,Weather View 32 v70,2013-07-30 10:45:00,
2013-07-30 06:50:00,75.2,73.0,30.11,ESE,115,0.0,1.0,93,0.00,,,0.00,Weather View 32 v70,2013-07-30 10:50:00,
2013-07-30 06:55:00,75.2,73.0,30.11,ESE,115,0.0,1.0,93,0.00,,,0.00,Weather View 32 v70,2013-07-30 10:55:00,
2013-07-30 07:00:00,75.2,73.0,30.12,ESE,115,0.0,1.0,93,0.00,,,0.00,Weather View 32 v70,2013-07-30 11:00:00,
2013-07-30 07:05:00,75.3,73.1,30.12,ESE,116,0.0,2.0,93,0.00,,,0.00,Weather View 32 v70,2013-07-30 11:05:00,
2013-07-30 07:10:00,75.4,73.2,30.12,ESE,115,0.0,2.0,93,0.00,,,0.00,Weather View 32 v70,2013-07-30 11:10:00,
2013-07-30 07:15:00,75.4,73.2,30.12,ESE,116,0.0,2.0,93,0.00,,,0.00,Weather View 32 v70,2013-07-30 11:15:00,
2013-07-30 07:20:00,75.6,73.4,30.13,ESE,116,0.0,2.0,93,0.00,,,0.00,Weather View 32 v70,2013-07-30 11:20:00,
2013-07-30 07:25:00,75.7,73.5,30.13,ESE,116,0.0,2.0,93,0.00,,,0.00,Weather View 32 v70,2013-07-30 11:25:00,
2013-07-30 07:30:00,75.8,73.3,30.13,ESE,116,0.0,3.0,92,0.00,,,0.00,Weather View 32 v70,2013-07-30 11:30:00,
2013-07-30 07:35:00,76.1,73.6,30.13,ESE,115,0.0,3.0,92,0.00,,,0.00,Weather View 32 v70,2013-07-30 11:35:00,
2013-07-30 07:40:00,76.6,74.1,30.13,ESE,116,0.0,3.0,92,0.00,,,0.00,Weather View 32 v70,2013-07-30 11:40:00,
2013-07-30 07:45:00,77.1,74.3,30.13,ESE,116,0.0,3.0,91,0.00,,,0.00,Weather View 32 v70,2013-07-30 11:45:00,
2013-07-30 07:50:00,77.6,74.4,30.13,ESE,116,0.0,3.0,90,0.00,,,0.00,Weather View 32 v70,2013-07-30 11:50:00,
2013-07-30 07:55:00,78.1,74.9,30.13,ESE,116,0.0,3.0,90,0.00,,,0.00,Weather View 32 v70,2013-07-30 11:55:00,
2013-07-30 08:00:00,78.4,74.9,30.13,ESE,115,0.0,3.0,89,0.00,,,0.00,Weather View 32 v70,2013-07-30 12:00:00,
2013-07-30 08:05:00,78.9,75.4,30.13,ESE,116,0.0,3.0,89,0.00,,,0.00,Weather View 32 v70,2013-07-30 12:05:00,
2013-07-30 08:10:00,79.4,75.9,30.13,ESE,116,1.0,3.0,89,0.00,,,0.00,Weather View 32 v70,2013-07-30 12:10:00,
2013-07-30 08:15:00,79.7,76.2,30.14,ESE,115,0.0,4.0,89,0.00,,,0.00,Weather View 32 v70,2013-07-30 12:15:00,
2013-07-30 08:20:00,80.2,76.3,30.14,ESE,115,0.0,4.0,88,0.00,,,0.00,Weather View 32 v70,2013-07-30 12:20:00,
2013-07-30 08:25:00,80.6,76.7,30.14,ESE,115,0.0,5.0,88,0.00,,,0.00,Weather View 32 v70,2013-07-30 12:25:00,
2013-07-30 08:30:00,80.9,76.6,30.14,ESE,113,0.0,5.0,87,0.00,,,0.00,Weather View 32 v70,2013-07-30 12:30:00,
2013-07-30 08:35:00,81.0,76.7,30.14,ESE,109,0.0,5.0,87,0.00,,,0.00,Weather View 32 v70,2013-07-30 12:35:00,
2013-07-30 08:40:00,81.3,77.4,30.14,ESE,109,0.0,5.0,88,0.00,,,0.00,Weather View 32 v70,2013-07-30 12:40:00,
2013-07-30 08:45:00,81.8,77.2,30.14,ESE,109,1.0,5.0,86,0.00,,,0.00,Weather View 32 v70,2013-07-30 12:45:00,
2013-07-30 08:51:00,82.2,77.6,30.14,ESE,109,4.0,5.0,86,0.00,,,0.00,Weather View 32 v70,2013-07-30 12:51:00,
2013-07-30 08:56:00,82.5,77.5,30.14,ESE,109,1.0,5.0,85,0.00,,,0.00,Weather View 32 v70,2013-07-30 12:56:00,
2013-07-30 09:00:00,82.7,77.3,30.14,ESE,109,1.0,5.0,84,0.00,,,0.00,Weather View 32 v70,2013-07-30 13:00:00,
2013-07-30 09:01:00,82.7,77.3,30.14,ESE,109,3.0,5.0,84,0.00,,,0.00,Weather View 32 v70,2013-07-30 13:01:00,
2013-07-30 09:06:00,82.9,77.2,30.14,ESE,107,0.0,5.0,83,0.00,,,0.00,Weather View 32 v70,2013-07-30 13:06:00,
2013-07-30 09:11:00,83.3,77.6,30.15,ESE,109,0.0,5.0,83,0.00,,,0.00,Weather View 32 v70,2013-07-30 13:11:00,
2013-07-30 09:16:00,83.6,77.5,30.15,ESE,109,0.0,5.0,82,0.00,,,0.00,Weather View 32 v70,2013-07-30 13:16:00,
2013-07-30 09:21:00,84.1,78.0,30.15,ESE,109,0.0,5.0,82,0.00,,,0.00,Weather View 32 v70,2013-07-30 13:21:00,
2013-07-30 09:26:00,84.6,78.1,30.15,ESE,115,4.0,5.0,81,0.00,,,0.00,Weather View 32 v70,2013-07-30 13:26:00,
2013-07-30 09:31:00,84.7,78.2,30.15,ESE,114,0.0,5.0,81,0.00,,,0.00,Weather View 32 v70,2013-07-30 13:31:00,
2013-07-30 09:36:00,85.3,78.4,30.15,ESE,113,0.0,5.0,80,0.00,,,0.00,Weather View 32 v70,2013-07-30 13:36:00,
2013-07-30 09:41:00,85.9,78.6,30.15,ESE,113,1.0,5.0,79,0.00,,,0.00,Weather View 32 v70,2013-07-30 13:41:00,
2013-07-30 09:46:00,85.9,77.8,30.15,ESE,112,3.0,5.0,77,0.00,,,0.00,Weather View 32 v70,2013-07-30 13:46:00,
2013-07-30 09:51:00,86.1,78.4,30.15,ESE,111,0.0,5.0,78,0.00,,,0.00,Weather View 32 v70,2013-07-30 13:51:00,
2013-07-30 09:56:00,86.5,77.2,30.15,ESE,113,2.0,5.0,74,0.00,,,0.00,Weather View 32 v70,2013-07-30 13:56:00,
2013-07-30 10:00:00,86.5,77.2,30.15,ESE,113,0.0,5.0,74,0.00,,,0.00,Weather View 32 v70,2013-07-30 14:00:00,
2013-07-30 10:01:00,86.5,77.6,30.15,ESE,113,0.0,5.0,75,0.00,,,0.00,Weather View 32 v70,2013-07-30 14:01:00,
2013-07-30 10:06:00,87.3,78.4,30.14,ESE,113,0.0,5.0,75,0.00,,,0.00,Weather View 32 v70,2013-07-30 14:06:00,
2013-07-30 10:11:00,87.9,77.7,30.14,ESE,112,0.0,5.0,72,0.00,,,0.00,Weather View 32 v70,2013-07-30 14:11:00,
2013-07-30 10:16:00,88.5,77.8,30.14,ESE,112,0.0,5.0,71,0.00,,,0.00,Weather View 32 v70,2013-07-30 14:16:00,
2013-07-30 10:21:00,88.9,77.4,30.14,East,84,0.0,5.0,69,0.00,,,0.00,Weather View 32 v70,2013-07-30 14:21:00,
2013-07-30 10:26:00,89.3,77.7,30.14,East,84,0.0,5.0,69,0.00,,,0.00,Weather View 32 v70,2013-07-30 14:26:00,
2013-07-30 10:31:00,89.3,77.3,30.14,East,84,0.0,5.0,68,0.00,,,0.00,Weather View 32 v70,2013-07-30 14:31:00,
2013-07-30 10:36:00,89.8,77.3,30.14,East,82,0.0,5.0,67,0.00,,,0.00,Weather View 32 v70,2013-07-30 14:36:00,
2013-07-30 10:41:00,90.2,76.8,30.15,ESE,108,0.0,7.0,65,0.00,,,0.00,Weather View 32 v70,2013-07-30 14:41:00,
2013-07-30 10:46:00,89.9,77.4,30.15,ESE,108,0.0,7.0,67,0.00,,,0.00,Weather View 32 v70,2013-07-30 14:46:00,
2013-07-30 10:51:00,90.3,77.3,30.15,ESE,106,0.0,8.0,66,0.00,,,0.00,Weather View 32 v70,2013-07-30 14:51:00,
2013-07-30 10:56:00,90.2,77.2,30.16,East,82,0.0,8.0,66,0.00,,,0.00,Weather View 32 v70,2013-07-30 14:56:00,
2013-07-30 11:00:00,90.2,77.2,30.15,East,83,0.0,8.0,66,0.00,,,0.00,Weather View 32 v70,2013-07-30 15:00:00,
2013-07-30 11:01:00,90.3,77.3,30.15,East,83,0.0,8.0,66,0.00,,,0.00,Weather View 32 v70,2013-07-30 15:01:00,
2013-07-30 11:06:00,90.2,76.3,30.15,ESE,103,0.0,8.0,64,0.00,,,0.00,Weather View 32 v70,2013-07-30 15:06:00,
2013-07-30 11:11:00,89.3,75.5,30.15,East,90,0.0,8.0,64,0.00,,,0.00,Weather View 32 v70,2013-07-30 15:11:00,
2013-07-30 11:16:00,88.7,75.8,30.15,East,90,0.0,8.0,66,0.00,,,0.00,Weather View 32 v70,2013-07-30 15:16:00,
2013-07-30 11:21:00,88.1,75.3,30.15,NE,35,2.0,8.0,66,0.00,,,0.00,Weather View 32 v70,2013-07-30 15:21:00,
2013-07-30 11:26:00,88.2,75.3,30.15,NE,42,0.0,8.0,66,0.00,,,0.00,Weather View 32 v70,2013-07-30 15:26:00,
2013-07-30 11:32:00,89.3,74.5,30.15,NE,38,2.0,8.0,62,0.00,,,0.00,Weather View 32 v70,2013-07-30 15:32:00,
2013-07-30 11:37:00,89.9,75.6,30.15,NNE,25,0.0,8.0,63,0.00,,,0.00,Weather View 32 v70,2013-07-30 15:37:00,
2013-07-30 11:42:00,90.3,75.9,30.15,NE,36,0.0,8.0,63,0.00,,,0.00,Weather View 32 v70,2013-07-30 15:42:00,
2013-07-30 11:47:00,90.1,76.2,30.15,NE,42,0.0,8.0,64,0.00,,,0.00,Weather View 32 v70,2013-07-30 15:47:00,
2013-07-30 11:52:00,90.6,75.2,30.15,ENE,72,0.0,8.0,61,0.00,,,0.00,Weather View 32 v70,2013-07-30 15:52:00,
2013-07-30 11:57:00,90.9,76.0,30.15,ENE,67,0.0,8.0,62,0.00,,,0.00,Weather View 32 v70,2013-07-30 15:57:00,
2013-07-30 12:00:00,91.0,76.6,30.15,ENE,67,0.0,8.0,63,0.00,,,0.00,Weather View 32 v70,2013-07-30 16:00:00,
2013-07-30 12:02:00,91.2,75.3,30.15,NE,45,2.0,8.0,60,0.00,,,0.00,Weather View 32 v70,2013-07-30 16:02:00,
2013-07-30 12:07:00,91.7,75.8,30.15,NE,41,0.0,8.0,60,0.00,,,0.00,Weather View 32 v70,2013-07-30 16:07:00,
2013-07-30 12:12:00,92.6,74.5,30.14,NE,41,2.0,8.0,56,0.00,,,0.00,Weather View 32 v70,2013-07-30 16:12:00,
2013-07-30 12:17:00,92.7,76.2,30.14,NE,44,0.0,8.0,59,0.00,,,0.00,Weather View 32 v70,2013-07-30 16:17:00,
2013-07-30 12:22:00,91.8,74.8,30.14,NE,46,0.0,8.0,58,0.00,,,0.00,Weather View 32 v70,2013-07-30 16:22:00,
2013-07-30 12:27:00,91.3,75.9,30.14,NE,46,0.0,7.0,61,0.00,,,0.00,Weather View 32 v70,2013-07-30 16:27:00,
2013-07-30 12:32:00,91.4,76.5,30.14,East,86,3.0,7.0,62,0.00,,,0.00,Weather View 32 v70,2013-07-30 16:32:00,
2013-07-30 12:37:00,92.4,75.9,30.14,East,101,3.0,7.0,59,0.00,,,0.00,Weather View 32 v70,2013-07-30 16:37:00,
2013-07-30 12:42:00,93.1,76.1,30.14,ESE,109,0.0,8.0,58,0.00,,,0.00,Weather View 32 v70,2013-07-30 16:42:00,
2013-07-30 12:47:00,93.1,75.5,30.13,ESE,107,0.0,8.0,57,0.00,,,0.00,Weather View 32 v70,2013-07-30 16:47:00,
2013-07-30 12:52:00,93.1,76.6,30.13,East,96,3.0,8.0,59,0.00,,,0.00,Weather View 32 v70,2013-07-30 16:52:00,
2013-07-30 12:57:00,93.3,75.2,30.13,East,96,0.0,8.0,56,0.00,,,0.00,Weather View 32 v70,2013-07-30 16:57:00,
2013-07-30 13:00:00,93.5,74.8,30.13,East,96,0.0,8.0,55,0.00,,,0.00,Weather View 32 v70,2013-07-30 17:00:00,
2013-07-30 13:02:00,93.9,75.7,30.13,East,94,1.0,8.0,56,0.00,,,0.00,Weather View 32 v70,2013-07-30 17:02:00,
2013-07-30 13:08:00,93.6,74.9,30.13,NE,49,0.0,8.0,55,0.00,,,0.00,Weather View 32 v70,2013-07-30 17:08:00,
2013-07-30 13:13:00,92.5,75.0,30.12,East,82,0.0,8.0,57,0.00,,,0.00,Weather View 32 v70,2013-07-30 17:13:00,
2013-07-30 13:18:00,92.6,75.6,30.12,East,94,1.0,8.0,58,0.00,,,0.00,Weather View 32 v70,2013-07-30 17:18:00,
2013-07-30 13:23:00,92.9,75.3,30.12,NNE,32,0.0,11.0,57,0.00,,,0.00,Weather View 32 v70,2013-07-30 17:23:00,
2013-07-30 13:28:00,93.1,75.5,30.12,SE,132,0.0,11.0,57,0.00,,,0.00,Weather View 32 v70,2013-07-30 17:28:00,
2013-07-30 13:33:00,93.6,76.5,30.11,SE,132,0.0,11.0,58,0.00,,,0.00,Weather View 32 v70,2013-07-30 17:33:00,
2013-07-30 13:38:00,94.8,76.6,30.12,ESE,111,0.0,11.0,56,0.00,,,0.00,Weather View 32 v70,2013-07-30 17:38:00,
2013-07-30 13:43:00,94.8,76.6,30.11,ESE,118,0.0,11.0,56,0.00,,,0.00,Weather View 32 v70,2013-07-30 17:43:00,
2013-07-30 13:48:00,94.0,75.3,30.11,East,100,1.0,11.0,55,0.00,,,0.00,Weather View 32 v70,2013-07-30 17:48:00,
2013-07-30 13:53:00,93.7,75.6,30.11,East,90,0.0,11.0,56,0.00,,,0.00,Weather View 32 v70,2013-07-30 17:53:00,
2013-07-30 13:58:00,93.9,75.7,30.11,East,88,0.0,11.0,56,0.00,,,0.00,Weather View 32 v70,2013-07-30 17:58:00,
2013-07-30 14:00:00,93.9,75.7,30.11,East,88,0.0,11.0,56,0.00,,,0.00,Weather View 32 v70,2013-07-30 18:00:00,
2013-07-30 14:23:00,93.0,73.8,30.11,SE,125,3.0,9.0,54,0.00,,,0.00,Weather View 32 v70,2013-07-30 18:23:00,
2013-07-30 14:28:00,93.2,74.5,30.10,SE,139,0.0,8.0,55,0.00,,,0.00,Weather View 32 v70,2013-07-30 18:28:00,
2013-07-30 14:33:00,94.1,75.9,30.10,ESE,115,0.0,8.0,56,0.00,,,0.00,Weather View 32 v70,2013-07-30 18:33:00,
2013-07-30 14:38:00,93.9,76.3,30.10,ESE,106,1.0,8.0,57,0.00,,,0.00,Weather View 32 v70,2013-07-30 18:38:00,
2013-07-30 14:43:00,93.2,75.1,30.09,ESE,106,0.0,8.0,56,0.00,,,0.00,Weather View 32 v70,2013-07-30 18:43:00,
2013-07-30 14:48:00,93.0,75.4,30.09,East,101,5.0,7.0,57,0.00,,,0.00,Weather View 32 v70,2013-07-30 18:48:00,
2013-07-30 14:53:00,92.6,74.0,30.09,ENE,65,3.0,7.0,55,0.00,,,0.00,Weather View 32 v70,2013-07-30 18:53:00,
2013-07-30 14:58:00,92.4,75.9,30.09,ENE,61,0.0,7.0,59,0.00,,,0.00,Weather View 32 v70,2013-07-30 18:58:00,
2013-07-30 15:00:00,92.5,75.0,30.09,ENE,65,0.0,7.0,57,0.00,,,0.00,Weather View 32 v70,2013-07-30 19:00:00,
2013-07-30 15:03:00,92.9,74.3,30.09,ESE,102,0.0,7.0,55,0.00,,,0.00,Weather View 32 v70,2013-07-30 19:03:00,
2013-07-30 15:08:00,93.4,74.7,30.09,North,5,3.0,7.0,55,0.00,,,0.00,Weather View 32 v70,2013-07-30 19:08:00,
2013-07-30 15:13:00,94.1,75.4,30.08,NNE,19,0.0,7.0,55,0.00,,,0.00,Weather View 32 v70,2013-07-30 19:13:00,
2013-07-30 15:18:00,94.9,75.0,30.08,NE,46,0.0,7.0,53,0.00,,,0.00,Weather View 32 v70,2013-07-30 19:18:00,
2013-07-30 15:28:00,95.1,75.2,30.08,NE,40,0.0,7.0,53,0.00,,,0.00,Weather View 32 v70,2013-07-30 19:28:00,
2013-07-30 15:33:00,93.4,74.2,30.08,East,101,0.0,8.0,54,0.00,,,0.00,Weather View 32 v70,2013-07-30 19:33:00,
2013-07-30 15:38:00,93.7,73.9,30.07,East,87,2.0,8.0,53,0.00,,,0.00,Weather View 32 v70,2013-07-30 19:38:00,
2013-07-30 15:43:00,93.5,74.3,30.07,ENE,72,0.0,8.0,54,0.00,,,0.00,Weather View 32 v70,2013-07-30 19:43:00,
2013-07-30 15:48:00,93.8,73.4,30.07,East,80,0.0,8.0,52,0.00,,,0.00,Weather View 32 v70,2013-07-30 19:48:00,
2013-07-30 15:53:00,93.3,73.0,30.07,SE,128,1.0,9.0,52,0.00,,,0.00,Weather View 32 v70,2013-07-30 19:53:00,
2013-07-30 15:58:00,93.4,73.6,30.07,ESE,114,1.0,9.0,53,0.00,,,0.00,Weather View 32 v70,2013-07-30 19:58:00,
2013-07-30 16:00:00,93.5,73.7,30.06,ESE,114,1.0,9.0,53,0.00,,,0.00,Weather View 32 v70,2013-07-30 20:00:00,
2013-07-30 16:03:00,94.5,75.2,30.06,ESE,106,0.0,9.0,54,0.00,,,0.00,Weather View 32 v70,2013-07-30 20:03:00,
2013-07-30 16:08:00,95.2,75.3,30.05,East,99,2.0,9.0,53,0.00,,,0.00,Weather View 32 v70,2013-07-30 20:08:00,
2013-07-30 16:13:00,94.8,74.3,30.05,NE,46,2.0,9.0,52,0.00,,,0.00,Weather View 32 v70,2013-07-30 20:13:00,
2013-07-30 16:18:00,94.4,74.5,30.05,ENE,65,0.0,9.0,53,0.00,,,0.00,Weather View 32 v70,2013-07-30 20:18:00,
2013-07-30 16:23:00,94.4,74.0,30.05,SE,130,7.0,9.0,52,0.00,,,0.00,Weather View 32 v70,2013-07-30 20:23:00,
2013-07-30 16:28:00,93.7,74.5,30.05,East,93,1.0,9.0,54,0.00,,,0.00,Weather View 32 v70,2013-07-30 20:28:00,
2013-07-30 16:33:00,93.2,74.5,30.04,East,92,0.0,9.0,55,0.00,,,0.00,Weather View 32 v70,2013-07-30 20:33:00,
2013-07-30 16:38:00,93.1,73.9,30.04,East,93,0.0,9.0,54,0.00,,,0.00,Weather View 32 v70,2013-07-30 20:38:00,
2013-07-30 16:43:00,93.0,74.9,30.05,East,93,0.0,9.0,56,0.00,,,0.00,Weather View 32 v70,2013-07-30 20:43:00,
2013-07-30 16:48:00,92.9,74.8,30.05,East,80,3.0,9.0,56,0.00,,,0.00,Weather View 32 v70,2013-07-30 20:48:00,
2013-07-30 16:53:00,92.7,74.6,30.05,ENE,71,2.0,9.0,56,0.00,,,0.00,Weather View 32 v70,2013-07-30 20:53:00,
2013-07-30 16:58:00,92.5,73.9,30.05,SE,136,0.0,9.0,55,0.00,,,0.00,Weather View 32 v70,2013-07-30 20:58:00,
2013-07-30 17:00:00,92.5,73.9,30.05,SE,128,3.0,9.0,55,0.00,,,0.00,Weather View 32 v70,2013-07-30 21:00:00,
2013-07-30 17:03:00,92.2,74.2,30.05,ESE,118,4.0,9.0,56,0.00,,,0.00,Weather View 32 v70,2013-07-30 21:03:00,
2013-07-30 17:08:00,91.9,74.4,30.05,SE,128,3.0,9.0,57,0.00,,,0.00,Weather View 32 v70,2013-07-30 21:08:00,
2013-07-30 17:13:00,92.0,75.0,30.05,SE,126,0.0,9.0,58,0.00,,,0.00,Weather View 32 v70,2013-07-30 21:13:00,
2013-07-30 17:18:00,92.8,75.8,30.05,ESE,118,0.0,9.0,58,0.00,,,0.00,Weather View 32 v70,2013-07-30 21:18:00,
2013-07-30 17:23:00,93.4,75.3,30.05,East,92,0.0,9.0,56,0.00,,,0.00,Weather View 32 v70,2013-07-30 21:23:00,
2013-07-30 17:28:00,93.2,74.0,30.05,East,101,0.0,7.0,54,0.00,,,0.00,Weather View 32 v70,2013-07-30 21:28:00,
2013-07-30 17:33:00,92.9,74.3,30.05,East,101,0.0,7.0,55,0.00,,,0.00,Weather View 32 v70,2013-07-30 21:33:00,
2013-07-30 17:38:00,92.5,73.9,30.05,ESE,112,3.0,8.0,55,0.00,,,0.00,Weather View 32 v70,2013-07-30 21:38:00,
2013-07-30 17:43:00,92.2,73.6,30.05,ESE,111,0.0,8.0,55,0.00,,,0.00,Weather View 32 v70,2013-07-30 21:43:00,
2013-07-30 17:48:00,92.4,73.8,30.05,East,99,0.0,8.0,55,0.00,,,0.00,Weather View 32 v70,2013-07-30 21:48:00,
2013-07-30 17:53:00,91.5,74.6,30.07,SSE,152,3.0,26.0,58,0.00,,,0.00,Weather View 32 v70,2013-07-30 21:53:00,
2013-07-30 17:58:00,88.5,74.7,30.08,SSE,152,6.0,26.0,64,0.00,,,0.00,Weather View 32 v70,2013-07-30 21:58:00,
2013-07-30 18:00:00,88.1,73.9,30.07,SW,234,8.0,26.0,63,0.00,,,0.00,Weather View 32 v70,2013-07-30 22:00:00,
2013-07-30 18:03:00,86.4,74.1,30.07,SSE,161,1.0,26.0,67,0.00,,,0.00,Weather View 32 v70,2013-07-30 22:03:00,
2013-07-30 18:08:00,85.0,75.7,30.09,SSW,209,0.0,26.0,74,0.00,,,0.00,Weather View 32 v70,2013-07-30 22:08:00,
2013-07-30 18:13:00,83.0,75.8,30.07,SSE,167,3.0,26.0,79,0.06,,,0.07,Weather View 32 v70,2013-07-30 22:13:00,
2013-07-30 18:18:00,79.8,74.5,30.08,SSE,152,0.0,26.0,84,0.11,,,0.12,Weather View 32 v70,2013-07-30 22:18:00,
2013-07-30 18:23:00,77.9,73.7,30.07,SSW,213,9.0,26.0,87,0.18,,,0.18,Weather View 32 v70,2013-07-30 22:23:00,
2013-07-30 18:28:00,76.7,72.9,30.07,SSW,194,6.0,26.0,88,0.19,,,0.19,Weather View 32 v70,2013-07-30 22:28:00,
2013-07-30 18:33:00,76.2,73.0,30.07,WSW,248,4.0,26.0,90,0.19,,,0.19,Weather View 32 v70,2013-07-30 22:33:00,
2013-07-30 18:38:00,76.1,73.3,30.07,WSW,244,0.0,26.0,91,0.19,,,0.19,Weather View 32 v70,2013-07-30 22:38:00,
2013-07-30 18:43:00,76.1,73.3,30.06,WSW,257,0.0,26.0,91,0.19,,,0.19,Weather View 32 v70,2013-07-30 22:43:00,
2013-07-30 18:48:00,76.1,73.3,30.06,WSW,258,0.0,26.0,91,0.19,,,0.19,Weather View 32 v70,2013-07-30 22:48:00,
2013-07-30 18:53:00,76.1,73.3,30.07,WSW,257,0.0,25.0,91,0.19,,,0.19,Weather View 32 v70,2013-07-30 22:53:00,
2013-07-30 18:58:00,76.2,73.4,30.07,WSW,257,0.0,16.0,91,0.19,,,0.19,Weather View 32 v70,2013-07-30 22:58:00,
2013-07-30 19:00:00,76.2,73.4,30.07,WSW,258,0.0,16.0,91,0.19,,,0.19,Weather View 32 v70,2013-07-30 23:00:00,
2013-07-30 19:03:00,76.2,73.4,30.06,WSW,258,0.0,16.0,91,0.19,,,0.19,Weather View 32 v70,2013-07-30 23:03:00,
2013-07-30 19:08:00,76.5,74.0,30.06,WSW,258,0.0,16.0,92,0.19,,,0.19,Weather View 32 v70,2013-07-30 23:08:00,
2013-07-30 19:13:00,76.7,74.2,30.06,WSW,258,0.0,16.0,92,0.13,,,0.19,Weather View 32 v70,2013-07-30 23:13:00,
2013-07-30 19:18:00,76.8,74.3,30.06,WSW,258,0.0,16.0,92,0.08,,,0.19,Weather View 32 v70,2013-07-30 23:18:00,
2013-07-30 19:23:00,76.7,74.2,30.06,WSW,258,0.0,11.0,92,0.01,,,0.19,Weather View 32 v70,2013-07-30 23:23:00,
2013-07-30 19:28:00,76.7,74.2,30.06,WSW,257,0.0,10.0,92,0.00,,,0.19,Weather View 32 v70,2013-07-30 23:28:00,
2013-07-30 19:33:00,76.7,74.2,30.07,WSW,258,0.0,10.0,92,0.00,,,0.19,Weather View 32 v70,2013-07-30 23:33:00,
2013-07-30 19:38:00,76.7,74.2,30.07,WSW,257,0.0,8.0,92,0.00,,,0.19,Weather View 32 v70,2013-07-30 23:38:00,
2013-07-30 19:43:00,76.6,74.1,30.07,WSW,257,0.0,5.0,92,0.00,,,0.19,Weather View 32 v70,2013-07-30 23:43:00,
2013-07-30 19:48:00,76.6,74.1,30.08,WSW,258,0.0,0.0,92,0.00,,,0.19,Weather View 32 v70,2013-07-30 23:48:00,
2013-07-30 19:53:00,76.6,74.1,30.08,WSW,258,0.0,0.0,92,0.00,,,0.19,Weather View 32 v70,2013-07-30 23:53:00,
2013-07-30 19:58:00,76.7,74.2,30.09,WSW,257,0.0,0.0,92,0.00,,,0.19,Weather View 32 v70,2013-07-30 23:58:00,
2013-07-30 20:00:00,76.7,74.2,30.09,WSW,258,0.0,0.0,92,0.00,,,0.19,Weather View 32 v70,2013-07-31 00:00:00,
2013-07-30 20:03:00,76.7,74.2,30.08,WSW,258,0.0,0.0,92,0.00,,,0.19,Weather View 32 v70,2013-07-31 00:03:00,
2013-07-30 20:08:00,76.7,74.2,30.09,WSW,257,0.0,0.0,92,0.00,,,0.19,Weather View 32 v70,2013-07-31 00:08:00,
2013-07-30 20:13:00,76.9,74.4,30.09,WSW,257,0.0,0.0,92,0.00,,,0.19,Weather View 32 v70,2013-07-31 00:13:00,
2013-07-30 20:18:00,77.2,74.7,30.10,WSW,258,0.0,0.0,92,0.00,,,0.19,Weather View 32 v70,2013-07-31 00:18:00,
2013-07-30 20:23:00,77.4,74.9,30.10,WSW,258,0.0,0.0,92,0.00,,,0.19,Weather View 32 v70,2013-07-31 00:23:00,
2013-07-30 20:28:00,77.5,75.0,30.10,WSW,257,0.0,0.0,92,0.00,,,0.19,Weather View 32 v70,2013-07-31 00:28:00,
2013-07-30 20:33:00,77.5,75.0,30.10,WSW,258,0.0,0.0,92,0.00,,,0.19,Weather View 32 v70,2013-07-31 00:33:00,
2013-07-30 20:38:00,77.6,75.1,30.09,WSW,257,0.0,0.0,92,0.00,,,0.19,Weather View 32 v70,2013-07-31 00:38:00,
2013-07-30 20:43:00,77.6,75.1,30.09,WSW,257,0.0,0.0,92,0.00,,,0.19,Weather View 32 v70,2013-07-31 00:43:00,
2013-07-30 20:49:00,77.6,75.1,30.09,WSW,258,0.0,0.0,92,0.00,,,0.19,Weather View 32 v70,2013-07-31 00:49:00,
2013-07-30 20:54:00,77.7,75.2,30.09,WSW,257,0.0,0.0,92,0.00,,,0.19,Weather View 32 v70,2013-07-31 00:54:00,
2013-07-30 20:59:00,77.8,75.6,30.09,WSW,258,1.0,0.0,93,0.00,,,0.19,Weather View 32 v70,2013-07-31 00:59:00,
2013-07-30 21:00:00,77.8,75.6,30.09,WSW,257,0.0,1.0,93,0.00,,,0.19,Weather View 32 v70,2013-07-31 01:00:00,
2013-07-30 21:04:00,77.9,75.4,30.09,WSW,258,0.0,1.0,92,0.00,,,0.19,Weather View 32 v70,2013-07-31 01:04:00,
2013-07-30 21:09:00,77.9,75.4,30.09,WSW,258,0.0,1.0,92,0.00,,,0.19,Weather View 32 v70,2013-07-31 01:09:00,
2013-07-30 21:14:00,77.8,75.3,30.09,WSW,258,0.0,1.0,92,0.00,,,0.19,Weather View 32 v70,2013-07-31 01:14:00,
2013-07-30 21:19:00,77.9,75.4,30.09,WSW,258,0.0,1.0,92,0.00,,,0.19,Weather View 32 v70,2013-07-31 01:19:00,
2013-07-30 21:24:00,77.9,75.4,30.10,WSW,257,0.0,1.0,92,0.00,,,0.19,Weather View 32 v70,2013-07-31 01:24:00,
2013-07-30 21:29:00,77.8,75.3,30.09,WSW,258,0.0,1.0,92,0.00,,,0.19,Weather View 32 v70,2013-07-31 01:29:00,
2013-07-30 21:34:00,77.8,75.3,30.09,WSW,258,0.0,1.0,92,0.00,,,0.19,Weather View 32 v70,2013-07-31 01:34:00,
2013-07-30 21:39:00,77.8,75.3,30.09,WSW,258,0.0,1.0,92,0.00,,,0.19,Weather View 32 v70,2013-07-31 01:39:00,
2013-07-30 21:44:00,77.9,75.4,30.09,WSW,257,0.0,1.0,92,0.00,,,0.19,Weather View 32 v70,2013-07-31 01:44:00,
2013-07-30 21:49:00,77.9,75.4,30.08,WSW,258,0.0,1.0,92,0.00,,,0.19,Weather View 32 v70,2013-07-31 01:49:00,
2013-07-30 21:54:00,77.8,75.3,30.09,WSW,258,0.0,1.0,92,0.00,,,0.19,Weather View 32 v70,2013-07-31 01:54:00,
2013-07-30 21:59:00,77.9,75.4,30.09,WSW,257,0.0,1.0,92,0.03,,,0.19,Weather View 32 v70,2013-07-31 01:59:00,
2013-07-30 22:00:00,77.9,75.4,30.09,WSW,257,0.0,1.0,92,0.00,,,0.19,Weather View 32 v70,2013-07-31 02:00:00,
2013-07-30 22:04:00,77.9,75.4,30.10,WSW,258,0.0,0.0,92,0.00,,,0.19,Weather View 32 v70,2013-07-31 02:04:00,
2013-07-30 22:09:00,77.9,75.4,30.11,WSW,258,0.0,0.0,92,0.00,,,0.19,Weather View 32 v70,2013-07-31 02:09:00,
2013-07-30 22:14:00,78.0,75.5,30.11,WSW,257,0.0,0.0,92,0.00,,,0.19,Weather View 32 v70,2013-07-31 02:14:00,
2013-07-30 22:19:00,78.0,75.5,30.11,WSW,258,0.0,0.0,92,0.00,,,0.19,Weather View 32 v70,2013-07-31 02:19:00,
2013-07-30 22:24:00,78.1,75.6,30.11,WSW,258,0.0,0.0,92,0.00,,,0.19,Weather View 32 v70,2013-07-31 02:24:00,
2013-07-30 22:29:00,78.0,75.5,30.11,WSW,258,0.0,0.0,92,0.00,,,0.19,Weather View 32 v70,2013-07-31 02:29:00,
2013-07-30 22:34:00,78.1,75.6,30.11,WSW,258,0.0,0.0,92,0.00,,,0.19,Weather View 32 v70,2013-07-31 02:34:00,
2013-07-30 22:39:00,78.1,75.9,30.12,WSW,258,0.0,0.0,93,0.00,,,0.19,Weather View 32 v70,2013-07-31 02:39:00,
2013-07-30 22:44:00,78.2,76.0,30.11,WSW,258,0.0,0.0,93,0.00,,,0.19,Weather View 32 v70,2013-07-31 02:44:00,
2013-07-30 22:49:00,78.1,75.9,30.11,WSW,257,0.0,0.0,93,0.00,,,0.19,Weather View 32 v70,2013-07-31 02:49:00,
2013-07-30 22:54:00,78.1,75.9,30.12,WSW,258,0.0,0.0,93,0.00,,,0.19,Weather View 32 v70,2013-07-31 02:54:00,
2013-07-30 22:59:00,78.1,75.9,30.12,WSW,258,0.0,0.0,93,0.00,,,0.19,Weather View 32 v70,2013-07-31 02:59:00,
2013-07-30 23:00:00,78.1,75.9,30.12,WSW,258,0.0,0.0,93,0.00,,,0.19,Weather View 32 v70,2013-07-31 03:00:00,
2013-07-30 23:04:00,78.1,75.9,30.12,WSW,258,0.0,0.0,93,0.00,,,0.19,Weather View 32 v70,2013-07-31 03:04:00,
2013-07-30 23:09:00,78.1,75.9,30.12,WSW,257,0.0,0.0,93,0.00,,,0.19,Weather View 32 v70,2013-07-31 03:09:00,
2013-07-30 23:14:00,78.1,75.9,30.12,WSW,258,0.0,0.0,93,0.00,,,0.19,Weather View 32 v70,2013-07-31 03:14:00,
2013-07-30 23:19:00,78.0,75.8,30.12,WSW,257,0.0,0.0,93,0.00,,,0.19,Weather View 32 v70,2013-07-31 03:19:00,
2013-07-30 23:24:00,78.0,75.8,30.12,WSW,257,0.0,0.0,93,0.00,,,0.19,Weather View 32 v70,2013-07-31 03:24:00,
2013-07-30 23:29:00,78.0,75.8,30.12,WSW,258,0.0,0.0,93,0.00,,,0.19,Weather View 32 v70,2013-07-31 03:29:00,
2013-07-30 23:34:00,78.0,75.8,30.12,WSW,258,0.0,0.0,93,0.00,,,0.19,Weather View 32 v70,2013-07-31 03:34:00,
2013-07-30 23:39:00,78.0,75.8,30.12,WSW,257,0.0,0.0,93,0.00,,,0.19,Weather View 32 v70,2013-07-31 03:39:00,
2013-07-30 23:44:00,78.1,75.9,30.12,WSW,258,0.0,0.0,93,0.00,,,0.19,Weather View 32 v70,2013-07-31 03:44:00,
2013-07-30 23:49:00,78.0,75.8,30.12,WSW,258,0.0,0.0,93,0.00,,,0.19,Weather View 32 v70,2013-07-31 03:49:00,
2013-07-30 23:54:00,78.0,75.8,30.12,WSW,257,0.0,0.0,93,0.00,,,0.19,Weather View 32 v70,2013-07-31 03:54:00,
2013-07-30 23:59:00,78.1,75.9,30.12,WSW,258,0.0,0.0,93,0.00,,,0.19,Weather View 32 v70,2013-07-31 03:59:00,